Hourly Weather Rudenkivka

Today, 16 April, Friday

Time Temperature Precipitation Wind Pressure Humidity
00:00 +7°C° 0 mm 3 mps 751 mmHg 90%
01:00 +7°C° 0 mm 3 mps 751 mmHg 91%
02:00 +7°C° 0 mm 3 mps 751 mmHg 93%
03:00 +7°C° 0 mm 3 mps 751 mmHg 93%
04:00 +7°C° 0 mm 3 mps 751 mmHg 93%
05:00 +6°C° 0 mm 4 mps 751 mmHg 93%
06:00 +7°C° 0 mm 4 mps 751 mmHg 90%
07:00 +7°C° 0 mm 5 mps 751 mmHg 87%
08:00 +7°C° 0 mm 5 mps 752 mmHg 84%
09:00 +8°C° 0.1 mm 5 mps 752 mmHg 82%
10:00 +8°C° 0.1 mm 5 mps 752 mmHg 79%
11:00 +9°C° 0.1 mm 6 mps 752 mmHg 76%
12:00 +9°C° 0.2 mm 5 mps 752 mmHg 75%
13:00 +8°C° 0.2 mm 5 mps 752 mmHg 75%
14:00 +8°C° 0.2 mm 4 mps 752 mmHg 74%
15:00 +10°C° 0.2 mm 4 mps 752 mmHg 71%
16:00 +10°C° 0.2 mm 4 mps 752 mmHg 68%
17:00 +10°C° 0.2 mm 4 mps 752 mmHg 65%
18:00 +8°C° 0.4 mm 4 mps 753 mmHg 71%
19:00 +7°C° 0.4 mm 4 mps 753 mmHg 76%
20:00 +5°C° 0.4 mm 3 mps 753 mmHg 82%
21:00 +5°C° 0 mm 3 mps 753 mmHg 83%
22:00 +4°C° 0 mm 3 mps 754 mmHg 84%
23:00 +3°C° 0 mm 3 mps 754 mmHg 85%

Tomorrow, 17 April, Saturday

Time Temperature Precipitation Wind Pressure Humidity
00:00 +3°C° 0.1 mm 3 mps 754 mmHg 87%
01:00 +4°C° 0.1 mm 3 mps 754 mmHg 88%
02:00 +4°C° 0.1 mm 3 mps 754 mmHg 89%
03:00 +4°C° 0.1 mm 3 mps 754 mmHg 90%
04:00 +4°C° 0.1 mm 3 mps 754 mmHg 90%
05:00 +4°C° 0.1 mm 3 mps 754 mmHg 91%
06:00 +5°C° 0 mm 4 mps 754 mmHg 90%
07:00 +5°C° 0 mm 4 mps 755 mmHg 88%
08:00 +5°C° 0 mm 4 mps 755 mmHg 87%
09:00 +5°C° 0 mm 4 mps 756 mmHg 83%
10:00 +6°C° 0 mm 4 mps 756 mmHg 79%
11:00 +6°C° 0 mm 4 mps 756 mmHg 75%
12:00 +7°C° 0 mm 4 mps 756 mmHg 72%
13:00 +7°C° 0 mm 4 mps 756 mmHg 69%
14:00 +7°C° 0 mm 4 mps 757 mmHg 66%
15:00 +7°C° 0 mm 4 mps 757 mmHg 67%
16:00 +7°C° 0 mm 4 mps 757 mmHg 68%
17:00 +8°C° 0 mm 4 mps 757 mmHg 68%
18:00 +7°C° 0 mm 3 mps 757 mmHg 74%
19:00 +5°C° 0 mm 3 mps 757 mmHg 79%
20:00 +5°C° 0 mm 2 mps 757 mmHg 84%
21:00 +5°C° 0 mm 2 mps 757 mmHg 83%
22:00 +6°C° 0 mm 1 mps 757 mmHg 83%
23:00 +6°C° 0 mm 1 mps 757 mmHg 83%

Day after tomorrow, 18 April, Sunday

Time Temperature Precipitation Wind Pressure Humidity
00:00 +6°C° 0 mm 1 mps 757 mmHg 84%
01:00 +6°C° 0 mm 1 mps 756 mmHg 85%
02:00 +5°C° 0 mm 1 mps 756 mmHg 86%
03:00 +5°C° 0 mm 1 mps 756 mmHg 87%
04:00 +4°C° 0 mm 2 mps 756 mmHg 87%
05:00 +4°C° 0 mm 2 mps 756 mmHg 88%
06:00 +6°C° 0 mm 2 mps 756 mmHg 82%
07:00 +8°C° 0 mm 3 mps 756 mmHg 76%
08:00 +9°C° 0 mm 3 mps 756 mmHg 70%
09:00 +11°C° 0 mm 3 mps 756 mmHg 63%
10:00 +12°C° 0 mm 4 mps 755 mmHg 55%
11:00 +14°C° 0 mm 4 mps 755 mmHg 48%
12:00 +14°C° 0 mm 3 mps 755 mmHg 47%
13:00 +14°C° 0 mm 3 mps 755 mmHg 45%
14:00 +14°C° 0 mm 3 mps 755 mmHg 44%
15:00 +15°C° 0 mm 2 mps 755 mmHg 47%
16:00 +14°C° 0 mm 2 mps 755 mmHg 50%
17:00 +14°C° 0 mm 2 mps 755 mmHg 53%
18:00 +13°C° 0 mm 2 mps 755 mmHg 55%
19:00 +11°C° 0 mm 3 mps 755 mmHg 57%
20:00 +11°C° 0 mm 3 mps 754 mmHg 60%
21:00 +10°C° 0 mm 3 mps 754 mmHg 61%
22:00 +10°C° 0 mm 3 mps 754 mmHg 62%
23:00 +10°C° 0 mm 3 mps 754 mmHg 64%

19 April, Monday

Time Temperature Precipitation Wind Pressure Humidity
00:00 +9°C° 0 mm 3 mps 754 mmHg 67%
01:00 +9°C° 0 mm 3 mps 754 mmHg 70%
02:00 +8°C° 0 mm 3 mps 753 mmHg 72%
03:00 +8°C° 0.1 mm 2 mps 753 mmHg 75%
04:00 +8°C° 0.1 mm 2 mps 753 mmHg 79%
05:00 +8°C° 0.1 mm 2 mps 753 mmHg 82%
06:00 +8°C° 0.4 mm 2 mps 753 mmHg 82%
07:00 +9°C° 0.4 mm 3 mps 753 mmHg 83%
08:00 +9°C° 0.4 mm 3 mps 753 mmHg 83%
09:00 +8°C° 0.4 mm 4 mps 752 mmHg 84%
10:00 +8°C° 0.4 mm 4 mps 752 mmHg 85%
11:00 +8°C° 0.4 mm 5 mps 751 mmHg 86%
12:00 +8°C° 0.1 mm 4 mps 751 mmHg 86%
13:00 +8°C° 0.1 mm 4 mps 750 mmHg 87%
14:00 +8°C° 0.1 mm 4 mps 750 mmHg 87%
15:00 +8°C° 0 mm 4 mps 749 mmHg 88%
16:00 +8°C° 0 mm 4 mps 749 mmHg 88%
17:00 +9°C° 0 mm 3 mps 748 mmHg 89%
18:00 +9°C° 0 mm 3 mps 748 mmHg 91%
19:00 +9°C° 0 mm 3 mps 747 mmHg 92%
20:00 +9°C° 0 mm 3 mps 746 mmHg 94%
21:00 +8°C° 0.5 mm 4 mps 745 mmHg 95%
22:00 +8°C° 0.5 mm 4 mps 744 mmHg 96%
23:00 +8°C° 0.5 mm 4 mps 743 mmHg 97%

20 April, Tuesday

Time Temperature Precipitation Wind Pressure Humidity
00:00 +8°C° 1.7 mm 4 mps 742 mmHg 97%
01:00 +10°C° 1.7 mm 4 mps 741 mmHg 98%
02:00 +10°C° 1.7 mm 4 mps 740 mmHg 98%
03:00 +10°C° 3.1 mm 4 mps 738 mmHg 98%
04:00 +10°C° 3.1 mm 3 mps 737 mmHg 98%
05:00 +10°C° 3.1 mm 2 mps 735 mmHg 99%
06:00 +10°C° 2.3 mm 4 mps 735 mmHg 96%
07:00 +9°C° 2.3 mm 5 mps 735 mmHg 93%
08:00 +9°C° 2.3 mm 6 mps 734 mmHg 90%
09:00 +10°C° 0.1 mm 7 mps 734 mmHg 84%
10:00 +10°C° 0.1 mm 7 mps 734 mmHg 78%
11:00 +11°C° 0.1 mm 7 mps 734 mmHg 72%
12:00 +10°C° 0.2 mm 7 mps 734 mmHg 77%
13:00 +9°C° 0.2 mm 6 mps 735 mmHg 82%
14:00 +8°C° 0.2 mm 6 mps 735 mmHg 87%
15:00 +8°C° 0.9 mm 7 mps 736 mmHg 87%
16:00 +6°C° 0.9 mm 8 mps 737 mmHg 88%
17:00 +5°C° 0.9 mm 10 mps 738 mmHg 89%
18:00 +6°C° 0.5 mm 10 mps 740 mmHg 86%
19:00 +6°C° 0.5 mm 10 mps 741 mmHg 83%
20:00 +7°C° 0.5 mm 10 mps 742 mmHg 80%
21:00 +7°C° 0 mm 9 mps 743 mmHg 80%
22:00 +6°C° 0 mm 8 mps 744 mmHg 79%
23:00 +6°C° 0 mm 8 mps 745 mmHg 78%

21 April, Wednesday

Time Temperature Precipitation Wind Pressure Humidity
00:00 +6°C° 0 mm 7 mps 746 mmHg 79%
01:00 +5°C° 0 mm 7 mps 747 mmHg 80%
02:00 +5°C° 0 mm 6 mps 747 mmHg 81%
03:00 +4°C° 0 mm 6 mps 748 mmHg 83%
04:00 +4°C° 0 mm 6 mps 748 mmHg 85%
05:00 +4°C° 0 mm 6 mps 749 mmHg 87%
06:00 +5°C° 0 mm 6 mps 749 mmHg 82%
07:00 +6°C° 0 mm 7 mps 750 mmHg 76%
08:00 +9°C° 0 mm 7 mps 750 mmHg 71%
09:00 +10°C° 0 mm 7 mps 750 mmHg 64%
10:00 +11°C° 0 mm 8 mps 751 mmHg 58%
11:00 +13°C° 0 mm 8 mps 751 mmHg 51%
12:00 +14°C° 0.1 mm 7 mps 751 mmHg 52%
13:00 +14°C° 0.1 mm 7 mps 751 mmHg 54%
14:00 +14°C° 0.1 mm 6 mps 752 mmHg 55%
15:00 +13°C° 0.1 mm 5 mps 752 mmHg 57%
16:00 +13°C° 0.1 mm 5 mps 752 mmHg 59%
17:00 +13°C° 0.1 mm 4 mps 752 mmHg 61%
18:00 +12°C° 0 mm 4 mps 753 mmHg 66%
19:00 +11°C° 0 mm 3 mps 753 mmHg 71%
20:00 +9°C° 0 mm 3 mps 754 mmHg 76%
21:00 +9°C° 0 mm 3 mps 754 mmHg 77%
22:00 +9°C° 0 mm 3 mps 754 mmHg 77%
23:00 +8°C° 0 mm 3 mps 754 mmHg 78%
Show more